When you browse on this site, cookies collect data to enhance your experience and personalize the content and advertising you see.
Visit our Privacy Policy to learn more. By continuing to use the site, you agree to this use of cookies and data.
  • Em Portugal
  • Lista de países
  • Para 7 dias
  • Temperatura da água
  • Mapa do tempo
  • Widgets de tempo
  • user-avatar
    Iniciar Sessão

    Previsão horária em Naftalan

    Hoje, 12 Novembro, Terça-feira

    Tempo Temperatura Precipitação Vento Pressão Humidade
    00:00 +15°C° 0 mm 1 m/s 769 mmHg 81%
    01:00 +15°C° 0 mm 1 m/s 770 mmHg 82%
    02:00 +14°C° 0 mm 1 m/s 770 mmHg 83%
    03:00 +14°C° 0 mm 1 m/s 770 mmHg 84%
    04:00 +14°C° 0 mm 1 m/s 770 mmHg 85%
    05:00 +13°C° 0 mm 1 m/s 770 mmHg 85%
    06:00 +13°C° 0 mm 2 m/s 771 mmHg 86%
    07:00 +14°C° 0 mm 1 m/s 771 mmHg 81%
    08:00 +15°C° 0 mm 1 m/s 771 mmHg 75%
    09:00 +18°C° 0 mm 1 m/s 772 mmHg 70%
    10:00 +19°C° 0 mm 1 m/s 771 mmHg 65%
    11:00 +19°C° 0 mm 1 m/s 771 mmHg 61%
    12:00 +18°C° 0 mm 0 m/s 771 mmHg 56%
    13:00 +20°C° 0 mm 1 m/s 770 mmHg 57%
    14:00 +20°C° 0 mm 1 m/s 770 mmHg 57%
    15:00 +19°C° 0 mm 2 m/s 770 mmHg 56%
    16:00 +19°C° 0 mm 2 m/s 770 mmHg 61%
    17:00 +18°C° 0 mm 2 m/s 771 mmHg 66%
    18:00 +17°C° 0 mm 2 m/s 771 mmHg 71%
    19:00 +17°C° 0 mm 2 m/s 771 mmHg 72%
    20:00 +16°C° 0 mm 2 m/s 771 mmHg 73%
    21:00 +16°C° 0 mm 2 m/s 771 mmHg 74%
    22:00 +16°C° 0 mm 1 m/s 771 mmHg 76%
    23:00 +15°C° 0 mm 1 m/s 771 mmHg 78%

    Amanhã, 13 Novembro, Quarta-feira

    Tempo Temperatura Precipitação Vento Pressão Humidade
    00:00 +15°C° 0 mm 1 m/s 771 mmHg 80%
    01:00 +14°C° 0 mm 1 m/s 771 mmHg 81%
    02:00 +14°C° 0 mm 1 m/s 771 mmHg 82%
    03:00 +14°C° 0 mm 1 m/s 770 mmHg 83%
    04:00 +13°C° 0 mm 1 m/s 770 mmHg 83%
    05:00 +13°C° 0 mm 1 m/s 771 mmHg 84%
    06:00 +13°C° 0 mm 1 m/s 771 mmHg 84%
    07:00 +14°C° 0 mm 1 m/s 771 mmHg 78%
    08:00 +15°C° 0 mm 1 m/s 771 mmHg 72%
    09:00 +16°C° 0 mm 2 m/s 771 mmHg 66%
    10:00 +17°C° 0 mm 2 m/s 771 mmHg 63%
    11:00 +18°C° 0 mm 2 m/s 771 mmHg 59%
    12:00 +19°C° 0 mm 2 m/s 770 mmHg 55%
    13:00 +19°C° 0 mm 2 m/s 770 mmHg 56%
    14:00 +19°C° 0 mm 3 m/s 770 mmHg 58%
    15:00 +19°C° 0 mm 3 m/s 770 mmHg 59%
    16:00 +18°C° 0 mm 3 m/s 770 mmHg 64%
    17:00 +17°C° 0 mm 3 m/s 770 mmHg 69%
    18:00 +16°C° 0 mm 3 m/s 770 mmHg 75%
    19:00 +16°C° 0 mm 3 m/s 771 mmHg 74%
    20:00 +16°C° 0 mm 3 m/s 771 mmHg 74%
    21:00 +14°C° 0 mm 3 m/s 771 mmHg 74%
    22:00 +15°C° 0 mm 2 m/s 771 mmHg 75%
    23:00 +15°C° 0 mm 2 m/s 771 mmHg 75%

    Depois de amanhã, 14 Novembro, Quinta-feira

    Tempo Temperatura Precipitação Vento Pressão Humidade
    00:00 +15°C° 0 mm 2 m/s 770 mmHg 76%
    01:00 +15°C° 0 mm 2 m/s 770 mmHg 77%
    02:00 +15°C° 0 mm 2 m/s 770 mmHg 78%
    03:00 +13°C° 0 mm 3 m/s 770 mmHg 79%
    04:00 +13°C° 0 mm 3 m/s 770 mmHg 80%
    05:00 +13°C° 0 mm 3 m/s 770 mmHg 81%
    06:00 +13°C° 0 mm 3 m/s 770 mmHg 82%
    07:00 +14°C° 0 mm 4 m/s 770 mmHg 78%
    08:00 +14°C° 0 mm 4 m/s 771 mmHg 74%
    09:00 +15°C° 0 mm 5 m/s 771 mmHg 70%
    10:00 +16°C° 0.1 mm 6 m/s 771 mmHg 68%
    11:00 +16°C° 0.1 mm 6 m/s 771 mmHg 65%
    12:00 +16°C° 0.1 mm 7 m/s 770 mmHg 62%
    13:00 +16°C° 0 mm 8 m/s 770 mmHg 64%
    14:00 +16°C° 0 mm 8 m/s 770 mmHg 65%
    15:00 +15°C° 0 mm 9 m/s 770 mmHg 66%
    16:00 +15°C° 0 mm 9 m/s 770 mmHg 67%
    17:00 +13°C° 0 mm 9 m/s 771 mmHg 68%
    18:00 +13°C° 0 mm 9 m/s 771 mmHg 68%
    19:00 +12°C° 0 mm 9 m/s 771 mmHg 68%
    20:00 +12°C° 0 mm 9 m/s 772 mmHg 68%
    21:00 +12°C° 0 mm 9 m/s 772 mmHg 68%
    22:00 +11°C° 0 mm 8 m/s 772 mmHg 66%
    23:00 +11°C° 0 mm 8 m/s 772 mmHg 65%

    15 Novembro, Sexta-feira

    Tempo Temperatura Precipitação Vento Pressão Humidade
    00:00 +11°C° 0 mm 7 m/s 772 mmHg 63%
    01:00 +11°C° 0 mm 7 m/s 772 mmHg 63%
    02:00 +11°C° 0 mm 7 m/s 771 mmHg 63%
    03:00 +11°C° 0 mm 7 m/s 771 mmHg 63%
    04:00 +11°C° 0 mm 8 m/s 771 mmHg 63%
    05:00 +11°C° 0 mm 9 m/s 771 mmHg 62%
    06:00 +11°C° 0 mm 10 m/s 771 mmHg 61%
    07:00 +11°C° 0.2 mm 9 m/s 772 mmHg 62%
    08:00 +11°C° 0.2 mm 9 m/s 772 mmHg 62%
    09:00 +11°C° 0.2 mm 9 m/s 773 mmHg 63%
    10:00 +11°C° 0 mm 9 m/s 773 mmHg 60%
    11:00 +12°C° 0 mm 9 m/s 773 mmHg 56%
    12:00 +13°C° 0 mm 9 m/s 773 mmHg 53%
    13:00 +12°C° 0.1 mm 7 m/s 772 mmHg 64%
    14:00 +11°C° 0.1 mm 7 m/s 772 mmHg 65%
    15:00 +11°C° 0.1 mm 7 m/s 772 mmHg 65%
    16:00 +11°C° 0 mm 7 m/s 773 mmHg 66%
    17:00 +10°C° 0 mm 7 m/s 773 mmHg 66%
    18:00 +10°C° 0 mm 6 m/s 773 mmHg 66%
    19:00 +10°C° 0 mm 6 m/s 773 mmHg 67%
    20:00 +9°C° 0 mm 5 m/s 774 mmHg 68%
    21:00 +9°C° 0 mm 5 m/s 774 mmHg 68%
    22:00 +9°C° 0.1 mm 5 m/s 774 mmHg 68%
    23:00 +10°C° 0.1 mm 4 m/s 774 mmHg 68%

    16 Novembro, Sábado

    Tempo Temperatura Precipitação Vento Pressão Humidade
    00:00 +10°C° 0.1 mm 4 m/s 774 mmHg 68%
    01:00 +10°C° 0.1 mm 4 m/s 774 mmHg 68%
    02:00 +10°C° 0.1 mm 4 m/s 774 mmHg 67%
    03:00 +8°C° 0.1 mm 4 m/s 774 mmHg 67%
    04:00 +10°C° 0 mm 4 m/s 774 mmHg 67%
    05:00 +10°C° 0 mm 4 m/s 774 mmHg 66%
    06:00 +10°C° 0 mm 4 m/s 774 mmHg 66%
    07:00 +9°C° 0 mm 5 m/s 775 mmHg 62%
    08:00 +10°C° 0 mm 5 m/s 775 mmHg 58%
    09:00 +12°C° 0 mm 5 m/s 775 mmHg 54%
    10:00 +13°C° 0 mm 5 m/s 775 mmHg 52%
    11:00 +13°C° 0 mm 4 m/s 775 mmHg 49%
    12:00 +14°C° 0 mm 4 m/s 775 mmHg 47%
    13:00 +14°C° 0 mm 4 m/s 775 mmHg 48%
    14:00 +14°C° 0 mm 4 m/s 775 mmHg 49%
    15:00 +14°C° 0 mm 4 m/s 774 mmHg 51%
    16:00 +13°C° 0 mm 4 m/s 775 mmHg 52%
    17:00 +13°C° 0 mm 4 m/s 775 mmHg 53%
    18:00 +13°C° 0 mm 3 m/s 775 mmHg 55%
    19:00 +12°C° 0 mm 3 m/s 775 mmHg 55%
    20:00 +12°C° 0 mm 3 m/s 776 mmHg 55%
    21:00 +13°C° 0 mm 2 m/s 776 mmHg 56%
    22:00 +12°C° 0.1 mm 3 m/s 776 mmHg 58%
    23:00 +12°C° 0.1 mm 3 m/s 776 mmHg 60%

    17 Novembro, Domingo

    Tempo Temperatura Precipitação Vento Pressão Humidade
    00:00 +11°C° 0.1 mm 3 m/s 776 mmHg 63%
    01:00 +11°C° 0 mm 3 m/s 775 mmHg 63%
    02:00 +11°C° 0 mm 4 m/s 775 mmHg 63%
    03:00 +11°C° 0 mm 4 m/s 775 mmHg 64%
    04:00 +11°C° 0 mm 4 m/s 775 mmHg 66%
    05:00 +11°C° 0 mm 4 m/s 775 mmHg 67%
    06:00 +11°C° 0 mm 3 m/s 775 mmHg 69%
    07:00 +11°C° 0 mm 4 m/s 776 mmHg 67%
    08:00 +12°C° 0 mm 4 m/s 776 mmHg 64%
    09:00 +12°C° 0 mm 4 m/s 776 mmHg 62%
    10:00 +13°C° 0 mm 4 m/s 776 mmHg 61%
    11:00 +13°C° 0 mm 4 m/s 776 mmHg 60%
    12:00 +13°C° 0 mm 4 m/s 775 mmHg 59%
    13:00 +13°C° 0 mm 4 m/s 775 mmHg 60%
    14:00 +13°C° 0 mm 3 m/s 775 mmHg 61%
    15:00 +13°C° 0 mm 3 m/s 774 mmHg 62%
    16:00 +12°C° 0 mm 3 m/s 774 mmHg 65%
    17:00 +11°C° 0 mm 3 m/s 775 mmHg 68%
    18:00 +10°C° 0 mm 3 m/s 775 mmHg 71%
    19:00 +10°C° 0 mm 3 m/s 775 mmHg 71%
    20:00 +10°C° 0 mm 3 m/s 775 mmHg 70%
    21:00 +10°C° 0 mm 3 m/s 775 mmHg 70%
    22:00 +10°C° 0 mm 3 m/s 775 mmHg 71%
    23:00 +10°C° 0 mm 3 m/s 774 mmHg 71%
    Mostrar mais